Overview Statistics Trail Chart Weather Telemetry Raw packets
 

This is the latest recevied weather packets stored in our database for station/object KB4JHU-15. If no packets are shown the sender has not sent any weather packets the latest 10 day(s).

<< 1 2 3 4 5 >>
Time Temp. Humidity Pressure Rain* Wind** Luminosity Snow
1788573454 27.78° C 76% - 0 mm - - -
1788571653 28.33° C 74% - 0 mm - - -
1788569852 28.89° C 70% - 0 mm - - -
1788568051 29.44° C 66% - 0 mm - - -
1788566250 30.56° C 63% - 0 mm - - -
1788564449 30.56° C 61% - 0 mm - - -
1788562648 32.22° C 55% - 0 mm - - -
1788560847 32.22° C 50% - 0 mm - - -
1788559046 32.78° C 50% - 0 mm - - -
1788557245 31.67° C 54% - 0 mm - - -
1788555444 31.11° C 56% - 0 mm - - -
1788553643 35.56° C 43% - 0 mm - - -
1788551842 36.11° C 41% - 0 mm - - -
1788550041 37.22° C 37% - 0 mm - - -
1788548240 35.56° C 40% - 0 mm - - -
1788546439 36.67° C 36% - 0 mm - - -
1788544638 35.56° C 43% - 0 mm - - -
1788542837 35.56° C 43% - 0 mm - - -
1788541036 35.56° C 44% - 0 mm - - -
1788539235 34.44° C 48% - 0 mm - - -
1788537434 33.89° C 50% - 0 mm - - -
1788535633 32.78° C 53% - 0 mm - - -
1788533832 31.67° C 58% - 0 mm - - -
1788532031 31.11° C 62% - 0 mm - - -
1788530230 30° C 66% - 0 mm - - -

* Rain latest hour (hover to see other rain measurements)
** Current wind speed in m/s (hover to see current wind gust speed)